Address 0x24b263ba5230f1a9699c7269a2bf541ce50e2691 3

 

Overview

Balance:
66.354453262658890141 MATIC

MATIC Value:
$97.08 (@ $1.46/MATIC)

Token:
Txn Hash Method
Block
From
To
Value [Txn Fee]
0x749f2577d6351c57cbf33bf979b17dfa6c445dc2c1dc00e9f1900c04d366480aGet Rewards240545212022-01-23 5:44:091 day 1 hr ago0x24b263ba5230f1a9699c7269a2bf541ce50e2691OUT 0xe193364370f0e2923b41a8d1850f442b45e5cca70 MATIC0.008818336442 46.273962275
0xc5699e099754bd83dde4fc4e998ceea9f6fc7cdb93db31f688755c6408cffa21Get Rewards240545062022-01-23 5:43:391 day 1 hr ago0x24b263ba5230f1a9699c7269a2bf541ce50e2691OUT 0x7e506cc945b47ed08ac2d985f61b47ce4068823c0 MATIC0.004296224117 53.934720764
0x8fbed46d1fda8a2f63896a9c1eef2a622315eb6dd33e5765f9e1bc9c7490f24dDeposit240544832022-01-23 5:42:531 day 1 hr ago0x24b263ba5230f1a9699c7269a2bf541ce50e2691OUT 0x4d4171d9e19619d4ea12ca42b5a89bcca8e9ce460 MATIC0.003280335282 51.420749333
0x641576dfb02f9e9ab4af2413f90fe0345c4f081ecb293eb9eb17dea1ff7d87cfEnd Quest240544342022-01-23 5:41:111 day 1 hr ago0x24b263ba5230f1a9699c7269a2bf541ce50e2691OUT 0xe193364370f0e2923b41a8d1850f442b45e5cca70 MATIC0.006955840096 65.341275076
0x223343966d6e10970238d280deca179f475b6a246d8cfda827583efb048f28d8Transfer240544222022-01-23 5:40:471 day 1 hr ago0x24b263ba5230f1a9699c7269a2bf541ce50e2691SELF0x24b263ba5230f1a9699c7269a2bf541ce50e26910 MATIC0.001375641795 65.50675216
0x00e61fa4f2496458566b71d8ce052221d77243a37fa9b60adac1969b03c0f556Start Quest240543442022-01-23 5:38:071 day 1 hr ago0x24b263ba5230f1a9699c7269a2bf541ce50e2691OUT 0xe193364370f0e2923b41a8d1850f442b45e5cca70 MATIC0.014535875611 58.481760952
0x6b5816fef717777cd2959ca7b01cb5acfeb9559e7f464929dda6ba88adc82d50Start Quest240543372022-01-23 5:37:531 day 1 hr ago0x24b263ba5230f1a9699c7269a2bf541ce50e2691OUT 0xe193364370f0e2923b41a8d1850f442b45e5cca70 MATIC0.013903027832 58.847798693
0xc80083adcf0fa2044fc0918efffa760a08258d876a00d20c3b8adb2198796a46Start Quest240543322022-01-23 5:37:391 day 1 hr ago0x24b263ba5230f1a9699c7269a2bf541ce50e2691OUT 0xe193364370f0e2923b41a8d1850f442b45e5cca70 MATIC0.016202503492 62.555754789
0x82ca7801e08ef79cf092d544b2a35c33cc93776b395c2d7bb7148f56c31c407cStart Quest240543222022-01-23 5:37:191 day 1 hr ago0x24b263ba5230f1a9699c7269a2bf541ce50e2691OUT 0xe193364370f0e2923b41a8d1850f442b45e5cca70 MATIC0.012968611551 54.892664469
0x257c71c4876689c079b6dc83e0bc46f9d113411ca0643af2f9f5353cfbb1e9f7Start Quest240543152022-01-23 5:37:051 day 1 hr ago0x24b263ba5230f1a9699c7269a2bf541ce50e2691OUT 0xe193364370f0e2923b41a8d1850f442b45e5cca70 MATIC0.014665422058 59.444211837
0x339d2d081021477c531caec0bcd9b87a5f87fb53fde6aebc7a4f5c6d087d2240End Quest240542692022-01-23 5:35:291 day 1 hr ago0x24b263ba5230f1a9699c7269a2bf541ce50e2691OUT 0xe193364370f0e2923b41a8d1850f442b45e5cca70 MATIC0.007682581015 53.554317169
0xcc1ca354a03975cd155e64c1e5da670330431e01b0ccd1f3bcff6b68ed7e2edfEnd Quest240542622022-01-23 5:35:151 day 1 hr ago0x24b263ba5230f1a9699c7269a2bf541ce50e2691OUT 0xe193364370f0e2923b41a8d1850f442b45e5cca70 MATIC0.007975797547 55.598293167
0x23c6cc89ec195a1165bd91246241692fca87ecd7ad6d2c6150c49c76f6b17e54End Quest240542552022-01-23 5:35:011 day 1 hr ago0x24b263ba5230f1a9699c7269a2bf541ce50e2691OUT 0xe193364370f0e2923b41a8d1850f442b45e5cca70 MATIC0.013258534459 92.423595434
0x34f5ef120d47a441c5a5036daef6af74738895ce7939f1bbe14647bc9b074ce5End Quest240542492022-01-23 5:34:491 day 1 hr ago0x24b263ba5230f1a9699c7269a2bf541ce50e2691OUT 0xe193364370f0e2923b41a8d1850f442b45e5cca70 MATIC0.007161911729 49.92479631
0xe34027d3f92cdc26ecf6ca08d9133b10e0714221b8dce71332d7500cdce26f8eGet Rewards240541372022-01-23 5:30:501 day 1 hr ago0x24b263ba5230f1a9699c7269a2bf541ce50e2691OUT 0x3d5099b13eb4334618df7d16a211eaf2bb5b780c0 MATIC0.003944093762 52.651098148
0x5cb4ac246d3757ed792045189f138837c258cc0fcc284a0802cfd60f619f2409Get Rewards240541312022-01-23 5:30:381 day 1 hr ago0x24b263ba5230f1a9699c7269a2bf541ce50e2691OUT 0xcbd0cc751808911a96014629d53f5441dd6c80e00 MATIC0.003302914336 44.091767946
0x2e026d56659a77dd5116cc73fb335515992fd7a5aaff9832e5a914227752984fDo Action With M...240535772022-01-23 5:11:381 day 2 hrs ago0x24b263ba5230f1a9699c7269a2bf541ce50e2691OUT 0xbff91e8592e5ba6a2a3e035097163a22e8f9113a0 MATIC0.003234987233 42.698210671
0xc6c7f5c3518f0d08302d50c691e7963f897566030a8c2f7a0e2bbe93b9dc5303Do Action With M...240535512022-01-23 5:10:421 day 2 hrs ago0x24b263ba5230f1a9699c7269a2bf541ce50e2691OUT 0xbff91e8592e5ba6a2a3e035097163a22e8f9113a0 MATIC0.003364472245 44.407267903
0x62867eaafcdf9221fb5b380fb26727102879c101147b08f550e0e5181be679b3Claim240535022022-01-23 5:09:001 day 2 hrs ago0x24b263ba5230f1a9699c7269a2bf541ce50e2691OUT 0x84698a8ee5b74eb29385134886b3a182660113e40 MATIC0.005423541168 44.587189706
0xc99182e6e846edbd32714f0bcc84ce750ee79134573ff7e54dad4fa2f21399d2Do Action With M...240534592022-01-23 5:07:341 day 2 hrs ago0x24b263ba5230f1a9699c7269a2bf541ce50e2691OUT 0x84698a8ee5b74eb29385134886b3a182660113e40 MATIC0.002116467913 39.246178493
0x1200ee9e72f92b2a9f2b0bc8385af4d0897600c4dbca632dd731dbad06a8598aReturn From Raid240534372022-01-23 5:06:461 day 2 hrs ago0x24b263ba5230f1a9699c7269a2bf541ce50e2691OUT 0x84698a8ee5b74eb29385134886b3a182660113e40 MATIC0.006788678633 45.276269907
0xf049b9994fc5dc1a8f99246143dd5ee86772d5265853ad8226d44b3cbd8df796Swap Exact Token...240144202022-01-22 5:41:572 days 1 hr ago0x24b263ba5230f1a9699c7269a2bf541ce50e2691OUT SushiSwap: SushiV2Router020 MATIC0.066449883904 610.029320973
0xf5ca0d86dc28bdc4c9b56a677dd3bcff61bf8fd731a4e0850f00ac5b2c40f15bDo Action With M...240143802022-01-22 5:39:552 days 1 hr ago0x24b263ba5230f1a9699c7269a2bf541ce50e2691OUT 0xbff91e8592e5ba6a2a3e035097163a22e8f9113a0 MATIC0.039504696189 538.291790182
0xb29db81167e5015f56c05003f5f2f66bd03cc7bbbe6ab5e73d73c2103ee3a8ceGet Rewards239998542022-01-21 21:07:202 days 10 hrs ago0x24b263ba5230f1a9699c7269a2bf541ce50e2691OUT 0xe193364370f0e2923b41a8d1850f442b45e5cca70 MATIC0.05743088716 330.358753597
0x05708252af9af8ecdc846fd44a2e8683fe277c851ba1fcfbcec27555a1fd649eGet Rewards239998492022-01-21 21:07:102 days 10 hrs ago0x24b263ba5230f1a9699c7269a2bf541ce50e2691OUT 0xe193364370f0e2923b41a8d1850f442b45e5cca70 MATIC0.063121675844 357.528608577
[ Download CSV Export 
Latest 7 internal transactions
Parent Txn Hash Block From To Value
0xf049b9994fc5dc1a8f99246143dd5ee86772d5265853ad8226d44b3cbd8df796240144202022-01-22 5:41:572 days 1 hr ago SushiSwap: SushiV2Router020x24b263ba5230f1a9699c7269a2bf541ce50e269145.34960593532454238 MATIC
0x6b7cf62ff04e2f2979e32398666d9445087eda6557084f448601297b6f9d05d3239750892022-01-21 5:40:113 days 1 hr ago SushiSwap: SushiV2Router020x24b263ba5230f1a9699c7269a2bf541ce50e269114.923237852401268311 MATIC
0xc964cb4a095b2e2a5d234e8bb8d749cc7b3fd12051588e104c45dc2e31575e51239239562022-01-19 23:04:544 days 8 hrs ago SushiSwap: SushiV2Router020x24b263ba5230f1a9699c7269a2bf541ce50e26916.332330632476000279 MATIC
0x6ae81a90785a774405777adfd71fd0052d50fb75e9309b206b138982347aec4c232514792022-01-02 6:41:3322 days 39 mins ago SushiSwap: SushiV2Router020x24b263ba5230f1a9699c7269a2bf541ce50e26915 MATIC
0x686b52120efb03270e0737ea3c9885c3b112ec72d7e66d97e20c8898d1cd7202232351952022-01-01 20:46:0222 days 10 hrs ago Disperse.app: Matic Network0x24b263ba5230f1a9699c7269a2bf541ce50e26910.16 MATIC
0x46a77d5735f4ce97e1e18b09dfc630727cb8a9a701b146e699801311c2d0ce4f229744332021-12-26 6:16:2429 days 1 hr ago SushiSwap: SushiV2Router020x24b263ba5230f1a9699c7269a2bf541ce50e26910.000166353265521486 MATIC
0xc0a0790a8a068e8e228c354590a89ae3bfc3887fc51ee748ace1980fb533d161220373322021-12-02 4:43:3653 days 2 hrs ago Disperse.app: Matic Network0x24b263ba5230f1a9699c7269a2bf541ce50e26911 MATIC
[ Download CSV Export 
Loading

Contract Name:
0 MATIC

Compiler Version
0

Optimization Enabled:
0 MATIC

Other Settings:
-NA-
Block Transaction Gas Used Reward
Age Block Fee Address BC Fee Address Voting Power Jailed Incoming
Block Uncle Number Difficulty Gas Used Reward
Loading
Loading
Make sure to use the "Vote Down" button for any spammy posts, and the "Vote Up" for interesting conversations.